Starlink 11089

operational
NORAD ID: 59426 Int'l Des: 2024-065 Owner: SPXS Country: US Constellation: starlink
LEOCIRCULAR

About Starlink 11089

Description loading...

Live Position

Loading 3D Globe...

Upcoming Passes

Altitude History

Altitude vs Time

uPlot chart will show altitude changes over time

Two-Line Element Set

1 59426U 24065F 25352.59516746 .00026870 00000-0 22703-3 0 9993
2 59426 53.1599 133.8644 0001824 87.5495 272.5731 15.69591784 98786
Epoch: Dec 18, 2025 • Age: 7 hours

Current Status

Altitude 360.9 km
Velocity 7.70 km/s
Sub-Earth Point 29.38°N, 115.04°W
Launch Date Apr 7, 2024
Age 1.6 years
Type internet

Technical Details

Classification Payload
Mass 960.00 kg
Dry Mass 910.00 kg
Total Mass 960.00 kg
Length 0.30 m
Diameter 4.10 m
Span 29.00 m
Shape Box + pan
Manufacturer SPXS
Bus Type Starlink V2MD
Phase Status In Orbit
Owner/State SPXS/US

Large Constellations

Loading constellations...